This is the latest recevied weather packets stored in our database for station/object F1ZFG-13. If no packets are shown the sender has not sent any weather packets the latest 10 day(s).
| Time | Temp. | Humidity | Pressure | Rain* | Wind** | Luminosity | Snow |
|---|---|---|---|---|---|---|---|
| 1777379751 | 16.67° C | 79% | 1014 hPa | 0 mm | - | - | - |
| 1777376481 | 16.67° C | 75% | 1014.4 hPa | 0.25 mm | - | - | - |
| 1777373525 | 16.67° C | 78% | 1014.7 hPa | 0 mm | - | - | - |
| 1777370461 | 16.67° C | 78% | 1014.7 hPa | 0 mm | - | - | - |
| 1777367269 | 15° C | 86% | 1015.1 hPa | 0 mm | - | - | - |
| 1777364141 | 13.89° C | 83% | 1015.2 hPa | 0 mm | - | - | - |
| 1777360988 | 12.78° C | 78% | 1015 hPa | 1.78 mm | - | - | - |
| 1777357527 | 12.22° C | 67% | 1014.7 hPa | 0.25 mm | - | - | - |
| 1777354090 | 11.67° C | 66% | 1014.5 hPa | 0 mm | - | - | - |
| 1777350889 | 12.22° C | 58% | 1014.6 hPa | 0 mm | - | - | - |
| 1777347737 | 13.33° C | 53% | 1014.9 hPa | 0 mm | - | - | - |
| 1777344511 | 13.89° C | 49% | 1015.2 hPa | 0 mm | - | - | - |
| 1777341507 | 14.44° C | 46% | 1015.4 hPa | 0 mm | - | - | - |
| 1777338547 | 14.44° C | 45% | 1015.1 hPa | 0 mm | - | - | - |
| 1777335223 | 15° C | 42% | 1015.3 hPa | 0 mm | - | - | - |
| 1777331722 | 15.56° C | 42% | 1015.6 hPa | 0 mm | - | - | - |
| 1777328140 | 16.11° C | 41% | 1016.1 hPa | 0 mm | - | - | - |
| 1777325036 | 16.67° C | 39% | 1016.4 hPa | 0 mm | - | - | - |
| 1777321987 | -17.78° C | 100% | 0 hPa | 0 mm | - | - | - |
| 1777318371 | 19.44° C | 33% | 1016.1 hPa | 0 mm | - | - | - |
| 1777315101 | 21.11° C | 28% | 1015.9 hPa | 0 mm | - | - | - |
| 1777311976 | 22.22° C | 25% | 1015.7 hPa | 0 mm | - | - | - |
| 1777308536 | 23.33° C | 22% | 1015.7 hPa | 0 mm | - | - | - |
| 1777305086 | 23.89° C | 21% | 1016.3 hPa | 0 mm | - | - | - |
| 1777302196 | 23.89° C | 21% | 1016.3 hPa | 0 mm | - | - | - |
* Rain latest hour (hover to see other rain measurements)
** Current wind speed in m/s (hover to see current wind gust speed)